TimeCST,TemperatureF,Dew PointF,Humidity,Sea Level PressureIn,VisibilityMPH,Wind Direction,Wind SpeedMPH,Gust SpeedMPH,PrecipitationIn,Events,Conditions,WindDirDegrees,DateUTC
12:14 AM,10.4,6.8,85,30.24,10.0,SSE,9.2,-,N/A,,Clear,150,2013-01-15 06:14:00
12:33 AM,12.2,8.6,85,30.24,10.0,SSE,9.2,-,N/A,,Clear,160,2013-01-15 06:33:00
12:54 AM,10.4,6.8,85,30.24,10.0,South,8.1,-,N/A,,Clear,170,2013-01-15 06:54:00
1:14 AM,10.4,6.8,85,30.24,10.0,South,5.8,-,N/A,,Clear,170,2013-01-15 07:14:00
1:33 AM,10.4,8.6,92,30.24,10.0,South,6.9,-,N/A,,Clear,180,2013-01-15 07:33:00
1:54 AM,15.8,10.4,79,30.23,10.0,South,10.4,-,N/A,,Clear,190,2013-01-15 07:54:00
2:14 AM,15.8,10.4,79,30.24,10.0,SSW,8.1,-,N/A,,Clear,200,2013-01-15 08:14:00
2:33 AM,15.8,10.4,79,30.24,10.0,SSW,6.9,-,N/A,,Clear,210,2013-01-15 08:33:00
2:54 AM,15.8,10.4,79,30.24,10.0,SSW,6.9,-,N/A,,Clear,200,2013-01-15 08:54:00
3:54 AM,14.0,10.4,86,30.23,10.0,SSW,4.6,-,N/A,,Clear,200,2013-01-15 09:54:00
4:14 AM,12.2,10.4,92,30.23,10.0,South,4.6,-,N/A,,Clear,190,2013-01-15 10:14:00
4:54 AM,12.2,8.6,85,30.21,10.0,South,3.5,-,N/A,,Clear,180,2013-01-15 10:54:00
5:14 AM,12.2,10.4,92,30.22,10.0,Calm,Calm,-,N/A,,Clear,0,2013-01-15 11:14:00
5:34 AM,12.2,8.6,85,30.21,10.0,South,3.5,-,N/A,,Clear,190,2013-01-15 11:34:00
6:14 AM,12.2,10.4,92,30.21,10.0,SSW,3.5,-,N/A,,Clear,200,2013-01-15 12:14:00
6:34 AM,12.2,10.4,92,30.21,10.0,South,3.5,-,N/A,,Clear,190,2013-01-15 12:34:00
6:50 AM,30.2,6.8,37,30.21,10.0,South,5.8,-,N/A,,Clear,180,2013-01-15 12:50:00
6:54 AM,8.6,6.8,92,30.21,10.0,South,4.6,-,N/A,,Clear,190,2013-01-15 12:54:00
7:55 AM,10.4,8.6,92,30.21,10.0,South,5.8,-,N/A,,Clear,170,2013-01-15 13:55:00
8:45 AM,12.2,10.4,92,30.21,10.0,South,5.8,-,N/A,,Clear,170,2013-01-15 14:45:00
9:45 AM,17.6,12.2,79,30.20,10.0,South,8.1,-,N/A,,Clear,190,2013-01-15 15:45:00
10:45 AM,21.2,14.0,74,30.18,10.0,South,9.2,-,N/A,,Clear,190,2013-01-15 16:45:00
12:45 PM,26.6,12.2,55,30.11,10.0,South,12.7,-,N/A,,Clear,180,2013-01-15 18:45:00
1:45 PM,28.4,12.2,51,30.08,10.0,SSW,15.0,-,N/A,,Clear,200,2013-01-15 19:45:00
2:45 PM,30.2,12.2,47,30.07,10.0,SSW,15.0,-,N/A,,Clear,210,2013-01-15 20:45:00
3:45 PM,30.2,15.8,55,30.04,10.0,South,12.7,-,N/A,,Clear,190,2013-01-15 21:45:00
4:45 PM,30.2,17.6,60,30.04,10.0,SSW,12.7,18.4,N/A,,Clear,210,2013-01-15 22:45:00
6:45 PM,26.6,15.8,64,29.98,10.0,South,6.9,-,N/A,,Clear,190,2013-01-16 00:45:00
7:45 PM,26.6,15.8,64,29.96,10.0,South,6.9,-,N/A,,Clear,190,2013-01-16 01:45:00
9:14 PM,26.6,17.6,69,29.89,10.0,South,15.0,-,N/A,,Clear,190,2013-01-16 03:14:00
9:33 PM,26.6,17.6,69,29.88,10.0,South,13.8,18.4,N/A,,Clear,190,2013-01-16 03:33:00
9:54 PM,26.6,19.4,74,29.87,10.0,South,13.8,18.4,N/A,,Clear,190,2013-01-16 03:54:00
10:14 PM,26.6,19.4,74,29.86,10.0,SSW,13.8,18.4,N/A,,Clear,200,2013-01-16 04:14:00
10:34 PM,26.6,19.4,74,29.85,10.0,SSW,11.5,20.7,N/A,,Clear,200,2013-01-16 04:34:00
10:54 PM,26.6,19.4,74,29.83,10.0,South,13.8,20.7,N/A,,Clear,190,2013-01-16 04:54:00
11:14 PM,26.6,19.4,74,29.82,10.0,SSW,13.8,20.7,N/A,,Clear,200,2013-01-16 05:14:00
11:34 PM,26.6,19.4,74,29.81,10.0,SSW,15.0,19.6,N/A,,Clear,200,2013-01-16 05:34:00
11:54 PM,26.6,19.4,74,29.80,10.0,SSW,12.7,24.2,N/A,,Clear,200,2013-01-16 05:54:00